Location: Unspecified
(0.0000°N, 0.0000°E)
Time: 19:07:47
(UTC+00:00)

Vanguard 3 - Pass Details

Date: 30 September 2023
Orbit: 507 x 3241 km, 33.3° (Epoch: 29 November)

Event Time Altitude Azimuth Distance (km) Brightness Sun altitude
Rises 01:33:45 0° 319° (NW) 2,610 - -64.0°
Reaches altitude 10° 01:35:59 10° 329° (NNW) 1,703 - -63.4°
Maximum altitude 01:39:21 35° 37° (NE) 874 - -62.6°
Drops below altitude 10° 01:43:22 10° 105° (ESE) 2,040 - -61.6°
Sets 01:46:17 0° 113° (ESE) 3,231 - -60.9°
